Weather History for Harare Kutsaga, Zimbabwe

Change the Weather History Date:

Sunday, January 19, 2014

  Actual Average Record
Temperature  
Mean Temperature 64 °F -  
Max Temperature 73 °F 78 °F 86 °F (2002)
Min Temperature 56 °F 60 °F 56 °F (2014)
Growing Degree Days 14 (Base 50)    
Moisture  
Dew Point 61 °F    
Average Humidity 84    
Maximum Humidity 98    
Minimum Humidity 64    
Precipitation  
Precipitation 0.00 in 0.21 in - ()
Sea Level Pressure  
Sea Level Pressure 30.17 in    
Wind  
Wind Speed 4 mph ()    
Max Wind Speed 16 mph    
Max Gust Speed -    
Visibility 10.3 miles    
Events Rain , Thunderstorm    
Averages and records for this station are not official NWS values.
T = Trace of Precipitation, MM = Missing Value Source: Averaged Metar Reports

Daily Weather History Graph

Daily Weather History Graph

Search for Another Location

Airport:

Trip Planner

Search our weather history database for the weather conditions in past years. The results will help you decide how hot, cold, wet, or windy it might be!

Date:

Astronomy

Jan. 19, 2014 Rise Set
Actual Time 5:34 AM CAT 6:37 PM CAT
Civil Twilight 5:11 AM CAT 7:00 PM CAT
Nautical Twilight 4:43 AM CAT 7:28 PM CAT
Astronomical Twilight 4:14 AM CAT 7:57 PM CAT
Moon 8:39 PM CAT (1/19) 8:02 AM CAT (1/19)
Length of Visible Light 13h 49m
Length of Day
13h 02m
Waning Gibbous, 91% of the Moon is Illuminated
Jan 19
Waning Gibbous
Jan 24
Last Quarter
Jan 30
New
Feb 6
First Quarter
Feb 15
Full

Hourly Weather History & Observations

Time (CAT) Temp. Dew Point Humidity Pressure Visibility Wind Dir Wind Speed Gust Speed Precip Events Conditions
12:00 AM 62.6 °F 59.0 °F 88% 30.15 in - ENE 6.9 mph - N/A   Clear
2:00 AM 59 °F 58 °F 95%  in 19 mi SE 3.5 mph - -   Scattered Clouds
2:00 AM 59.0 °F 57.2 °F 94% 30.15 in - SE 3.5 mph - N/A   Clear
5:00 AM 58 °F 58 °F 98%  in 19 mi East 3.5 mph - -   Scattered Clouds
5:00 AM 59.0 °F 57.2 °F 94% 30.18 in 6.2 mi East 3.5 mph - N/A   Partly Cloudy
7:00 AM 64.4 °F 60.8 °F 88% 30.21 in 6.2 mi East 3.5 mph - N/A   Mostly Cloudy
8:00 AM 69 °F 61 °F 70%  in 19 mi SE 8.9 mph - -   Scattered Clouds
8:00 AM 68.0 °F 62.6 °F 83% 30.21 in 6.2 mi SE 4.6 mph - N/A   Partly Cloudy
9:00 AM 69.8 °F 60.8 °F 73% 30.21 in 6.2 mi NE 3.5 mph - N/A   Mostly Cloudy
10:00 AM 73.4 °F 60.8 °F 65% 30.21 in 6.2 mi NE 4.6 mph - N/A   Mostly Cloudy
11:00 AM 67 °F 63 °F 83%  in 19 mi East 6.9 mph - -   Mostly Cloudy
11:00 AM 66.2 °F 62.6 °F 88% 30.18 in 6.2 mi East 6.9 mph - N/A   Mostly Cloudy
1:00 PM 64.4 °F 62.6 °F 94% 30.18 in 6.2 mi ESE 4.6 mph - N/A Rain , Thunderstorm Light Thunderstorms and Rain
2:00 PM 67 °F 64 °F 88%  in 19 mi NE 15.7 mph - - Rain , Thunderstorm Thunderstorms and Rain
2:00 PM 68.0 °F 64.4 °F 88% 30.15 in 6.2 mi NE 8.1 mph - N/A Rain , Thunderstorm Light Thunderstorms and Rain
3:00 PM 69.8 °F 62.6 °F 78% 30.15 in 6.2 mi North 4.6 mph - N/A   Mostly Cloudy
4:00 PM 69.8 °F 62.6 °F 78% 30.12 in 6.2 mi North 3.5 mph - N/A   Mostly Cloudy
5:00 PM 71 °F 62 °F 64%  in 19 mi NNW 3.5 mph - -   Scattered Clouds
5:00 PM 69.8 °F 60.8 °F 73% 30.12 in 6.2 mi NNW 3.5 mph - N/A   Mostly Cloudy
6:00 PM 71.6 °F 60.8 °F 69% 30.12 in 6.2 mi Variable 1.2 mph - N/A   Mostly Cloudy
7:00 PM 68.0 °F 62.6 °F 83% 30.15 in 6.2 mi ENE 3.5 mph - N/A   Mostly Cloudy
8:00 PM 64 °F 62 °F 90%  in 19 mi Calm Calm - -   Partly Cloudy
8:00 PM 64.4 °F 62.6 °F 94% 30.15 in 6.2 mi Calm Calm - N/A   Mostly Cloudy
9:00 PM 62.6 °F 60.8 °F 94% 30.15 in 6.2 mi SE 2.3 mph - N/A   Mostly Cloudy
10:00 PM 62.6 °F 60.8 °F 94% 30.18 in 6.2 mi SE 3.5 mph - N/A   Mostly Cloudy
11:00 PM 65 °F 61 °F 84%  in 19 mi SSE 4.6 mph - -   Scattered Clouds
11:00 PM 64.4 °F 60.8 °F 88% 30.18 in 6.2 mi SSE 4.6 mph - N/A   Mostly Cloudy